sat.trackr.live / text

‹ back to catalog

STARLINK-2217

NORAD 48568 · 2021-041R

PAYLOAD ACTIVE UNKNOWN

§ Identity

Operator
Country
US
Launch date
2021-05-15
Launch site
AFETR
Launch vehicle
Mass (kg)
RCS (m²)

Purposes: comms

External: N2YO · Heavens-Above · Gunter

§ Orbital elements

Epoch: 2026-09-19T19:55:51.711168Z

Period
94.01 min
Inclination
53.1594°
Eccentricity
0.0001429
Mean motion
15.31697720 rev/d
Perigee alt
469.8 km
Apogee alt
471.7 km
Semi-major
6,848.9 km
B*
-1.1293e-5
RAAN
303.6470°
Arg perigee
75.9069°
Mean anomaly
284.2091°
Rev number
29,501

§ Raw data

STARLINK-22171 48568U 21041R   26262.83045962 -.00000716  00000+0 -11293-4 0  99992 48568  53.1594 303.6470 0001429  75.9069 284.2091 15.31697720295019

JSON: /api/v1/satellites/48568 · /tle

For live sub-satellite position, see the globe view (requires WebGL).

§ Visibility from observer

Set your observer location to see the next 7 days of passes ≥ 10°. The values pass through the URL so the page stays shareable.

No JS? Fill the form by hand. The geolocation button needs JavaScript.